www.pogodaiklimat.ru

Погода и климат >> Архив погоды >> Мальдивы >> Kadhdhoo


ПОГОДА в Kadhdhoo

  • Прогноз погоды в Kadhdhoo
  • Монитор погоды в Kadhdhoo
  • Климат города

АРХИВ ПОГОДЫ в Kadhdhoo

Время (UTC), дата Ветер
(напр.,м/с)
 
Видим.   Явления Облачность Т
(С)
Тd
(С)
f
(%)
Тe
(С)
Тes
(С)
Комфортность P
(гПа)
Po
(гПа)
Тmin
(С)
Tmax
(С)
R
(мм)
R24
(мм)
S
(см)
15 11.11 З 3 12 км 9/3 540 м
[Cu med, cong Ac trans Cs]
+28.4 +24.5 79 +40 +40 очень
душно
1013.2 1013.0
18 11.11 З 3 10 км слабый ливневой дождь 9/4 540 м
[Cu med, cong Ac trans Cs]
+26.9 +24.3 86 +38 +38 очень
душно
1013.7 1013.5 0.2
21 11.11 З 4 12 км {ливн. осадки} 9/3 540 м
[Cu med, cong Ac trans Cs]
+27.6 +24.7 84 +39 +39 очень
душно
1011.5 1011.3
00 12.11 З 4 12 км {ливн. осадки} 9/3 540 м
[Cu med, cong Ac trans Cs]
+27.5 +24.6 84 +39 +39 очень
душно
1011.6 1011.4 0.2
03 12.11 З 4 12 км 5/3 540 м
[Cu med, cong Ac trans Ci sp]
+29.2 +25.4 80 +43 +45 опасность
перегрева
1013.4 1013.2 +26.4
06 12.11 З 4 12 км в посл. час ливневой дождь 9/5 500 м
[Cb cap Ac trans Ci sp]
+28.7 +25.4 82 +42 +46 опасность
перегрева
1013.0 1012.8 0.4
09 12.11 З 4 12 км в посл. час ливневой дождь 9/3 540 м
[Cu med, cong Ac cuf Ci sp]
+29.4 +25.1 78 +43 +47 опасность
перегрева
1010.5 1010.3
12 12.11 З 4 12 км {ливн. осадки} 9/4 500 м
[Cb cap Ac As]
+27.5 +25.2 87 +40 +40 очень
душно
1010.6 1010.4 +31.3 5
18 12.11 З 3 12 км {ливн. осадки} 9/4 500 м
[Cu med, cong Ac trans Ci sp]
+27.5 +25.4 88 +40 +40 очень
душно
1012.7 1012.5 0.3
21 12.11 З 4 10 км 9/4 540 м
[Cb cap Ac trans Ci sp]
+27.9 +24.5 82 +39 +39 очень
душно
1011.0 1010.8
00 13.11 З 3 12 км 9/3 540 м
[Cu med, cong Ac trans Ci sp]
+27.3 +24.9 87 +39 +39 очень
душно
1010.8 1010.6 0.3
03 13.11 З 4 12 км {ливн. осадки} 9/3 540 м
[Cb cap Ac trans Ci sp]
+28.6 +25.6 84 +42 +44 опасность
перегрева
1012.4 1012.2 +25.4
09 13.11 З 4 12 км {ливн. осадки} 9/3 540 м
[Cu med, cong Ac lent Cs]
+28.8 +24.8 79 +41 +45 опасность
перегрева
1009.0 1008.8
12 13.11 З 4 12 км {ливн. осадки} 9/3 540 м
[Cu med, cong Ac lent Ci sp]
+28.8 +25.1 80 +42 +42 опасность
перегрева
1008.4 1008.2 +30.9 3
15 13.11 З 5 12 км 6/3 540 м
[Cu med, cong Ac trans Ci sp]
+28.4 +24.7 80 +40 +40 очень
душно
1010.5 1010.3
18 13.11 З 4 12 км 6/3 540 м
[Cu med, cong Ac trans Ci sp]
+28.1 +24.4 80 +39 +39 очень
душно
1011.2 1011.0
21 13.11 З 5 10 км в посл. час ливневой дождь 8/3 540 м
[Cu med, cong Ac trans Ci sp]
+26.0 +24.6 92 +37 +37 очень
душно
1009.6 1009.4
00 14.11 З 5 10 км {ливн. осадки} 9/3 540 м
[Cu med, cong Ac trans Ci sp]
+27.6 +24.3 82 +39 +39 очень
душно
1010.0 1009.8 5
03 14.11 З 3 14 км {ливн. осадки} 6/3 540 м
[Cu med, cong Ac trans Ci sp]
+29.1 +25.4 80 +42 +44 опасность
перегрева
1012.3 1012.1 +24.9
06 14.11 З 4 12 км {ливн. осадки} 8/3 540 м
[Cu med, cong Ac trans Ci sp]
+29.1 +24.4 76 +41 +46 опасность
перегрева
1011.8 1011.6 0.3
09 14.11 З 2 12 км 8/3 540 м
[Cb cap Ac trans Ci sp]
+30.2 +25.7 77 +45 +51 опасность
перегрева
1009.2 1009.0
12 14.11 З 3 12 км 8/3 540 м
[Cu med, cong Ac trans Ci sp]
+29.1 +24.7 77 +41 +42 опасность
перегрева
1008.8 1008.6 +30.8 0.3
15 14.11 З 2 12 км 5/3 540 м
[Cu med, cong Ac trans Ci sp]
+28.2 +24.2 79 +39 +39 очень
душно
1010.7 1010.5
18 14.11 З 3 13 км 6/3 540 м
[Cu med, cong Ac trans Ci sp]
+27.9 +23.8 78 +38 +38 очень
душно
1011.1 1010.9
21 14.11 З 3 13 км 3/1 540 м
[Cu med, cong Ac lent Ci sp]
+27.5 +23.7 80 +38 +38 очень
душно
1009.3 1009.1
00 15.11 З 2 13 км 5/3 540 м
[Cu med, cong Ac trans Ci sp]
+27.4 +24.2 83 +38 +38 очень
душно
1009.6 1009.4
03 15.11 З 2 9000 м 3/1 570 м
[Cu hum Ci sp]
+29.5 +24.8 76 +42 +46 опасность
перегрева
1011.5 1011.3 +27.2
06 15.11 З 3 9000 м 4/1 570 м
[Cu hum Ci fib]
+31.2 +25.1 70 +45 +58 опасность
перегрева
1011.4 1011.2
09 15.11 З 3 8000 м мгла 4/3 540 м
[Cu med, cong Ci sp]
+31.0 +25.4 72 +45 +54 опасность
перегрева
1009.3 1009.1
15 15.11 Ю 2 8000 м мгла 4/3 540 м
[Cb cap Ac lent Ci sp]
+27.9 +25.2 85 +40 +40 очень
душно
1011.5 1011.3
21 15.11 З 3 9000 м 5/3 540 м
[Cu med, cong Ac trans Ci sp]
+27.8 +24.2 81 +39 +39 очень
душно
1010.3 1010.1
00 16.11 З 2 9000 м 4/3 540 м
[Cu med, cong Ac lent Ci sp]
+27.7 +24.5 83 +39 +39 очень
душно
1010.3 1010.1
03 16.11 З 3 10 км 4/3 540 м
[Cu med, cong Ac lent Ci sp]
+29.1 +24.5 76 +41 +44 опасность
перегрева
1012.2 1012.0 +27.0
06 16.11 З 2 9000 м 6/3 540 м
[Cu med, cong Ac trans Ci sp]
+30.3 +25.7 76 +45 +54 опасность
перегрева
1012.0 1011.8
09 16.11 З 3 12 км 3/1 540 м
[Cu med, cong Ac lent Ci sp]
+30.9 +25.2 72 +45 +55 опасность
перегрева
1009.8 1009.6
12 16.11 З 3 11 км 3/1 570 м
[Cu med, cong Ac lent Ci sp]
+29.7 +24.7 75 +42 +43 опасность
перегрева
1009.7 1009.5 +32.0
15 16.11 З 2 9000 м 5/1 570 м
[Cu med, cong Ac trans Ci sp]
+28.4 +24.5 79 +40 +40 очень
душно
1011.9 1011.7
21 16.11 ЮЗ 3 9000 м 3/3 540 м
[Cu med, cong Ac trans Ci sp]
+28.0 +24.6 82 +40 +40 очень
душно
1010.1 1009.9
00 17.11 З 3 9000 м 3/1 540 м
[Cu med, cong Ac trans Ci sp]
+27.9 +24.3 81 +39 +39 очень
душно
1010.6 1010.4
03 17.11 З 3 12 км 4/3 540 м
[Cu med, cong Ci fib]
+29.8 +25.0 75 +43 +45 опасность
перегрева
1012.9 1012.7 +27.6
06 17.11 З 3 12 км 4/3 540 м
[Cu med, cong Ci sp]
+31.1 +25.2 71 +45 +56 опасность
перегрева
1011.9 1011.7
09 17.11 З 3 12 км в посл. час ливневой дождь 6/3 540 м
[Cb cap Ac trans Ci sp]
+29.3 +24.9 77 +42 +49 опасность
перегрева
1009.6 1009.4
12 17.11 З 3 12 км в посл. час ливневой дождь 6/3 540 м
[Cb cap Ac trans Ci sp]
+29.3 +24.9 77 +42 +43 опасность
перегрева
1009.6 1009.4
15 17.11 З 3 12 км 3/1 540 м
[Cu med, cong Ac trans Ci fib]
+27.6 +25.2 87 +40 +40 очень
душно
1011.4 1011.2
18 17.11 З 3 12 км 4/3 540 м
[Cu med, cong Ac lent Ci sp]
+27.9 +25.0 84 +40 +40 очень
душно
1012.1 1011.9
21 17.11 З 3 12 км 4/3 540 м
[Cu med, cong Ac lent Ci sp]
+27.9 +25.0 84 +40 +40 очень
душно
1010.4 1010.2
00 18.11 З 4 12 км в посл. час ливневой дождь 4/3 540 м
[Cu med, cong Ac trans Ci sp]
+27.2 +24.8 87 +39 +39 очень
душно
1010.5 1010.3 2
03 18.11 ЮЗ 4 12 км 4/3 540 м
[Cu med, cong Ac trans Ci sp]
+29.5 +25.2 78 +43 +45 опасность
перегрева
1012.8 1012.6 +26.0
06 18.11 З 3 16 км 3/3 540 м
[Cu med, cong Ac trans Ci fib]
+30.8 +25.3 73 +45 +56 опасность
перегрева
1012.6 1012.4
09 18.11 З 3 16 км {ливн. осадки} 4/3 540 м
[Cu med, cong Ac cuf Ci sp]
+30.6 +24.9 72 +44 +52 опасность
перегрева
1009.8 1009.6

 

Местоположение метеостанции Kadhdhoo (Мальдивы): широта 1.88 долгота 73.50 высота над уровнем моря 2 м.

В архиве по умолчанию представлена погода в Kadhdhoo за последнюю неделю. Архивные данные за месяц целиком и за предыдущие месяцы, начиная с января 2011 года, Вы можете получить, выбрав интересующий диапазон дат из раскрывающегося списка и нажав кнопку "Ввод!".


*Определитесь, кто Вы:
робот инопланетянин человек

Внимание! Время в таблицах - всемирное. Для получения местного времени необходимо прибавить поправку, которая в Kadhdhoo равна 5 ч.

Смотрите также архив погоды в соседних городах и на ближайших метеорологических станциях:

Погода в Kaadedhdhoo (Мальдивы) (166 км)
Погода в Male (Мальдивы) (258 км)
Погода в Gan (Мальдивы) (287 км)
Погода в Hanimaadhoo (Мальдивы) (541 км)
Погода в Minicoy (Lakshadweep, Индия) (715 км)
Погода в Kanyakumari (Tamil Nadu, Индия) (820 км)
Погода в Thiruvananthapuram Air (Kerala, Индия) (827 км)
Погода в Thiruvananthapuram (Kerala, Индия) (828 км)
Погода в Galle (Шри Ланка) (877 км)
Погода в Punalur (Kerala, Индия) (878 км)

Пояснения к столбцам:

Ветер - указаны скорость ветра в м/с - средняя за 10 мин, порывы в срок и между сроками (в фигурных скобках) и направление, откуда дует ветер: С - северный, СВ - северо-восточный, В - восточный, ЮВ - юго-восточный, Ю - южный, ЮЗ - юго-западный, З - западный, СЗ - северо-западный.
Видимость - горизонтальная дальность видимости в метрах или километрах. При видимости от 1 до 10 км при отсутствии осадков обычно наблюдается дымка, при ухудшении видимости до 1 км и менее - туман. В сухую погоду видимость может ухудшаться дымом, пылью или мглою.
Явления - указаны атмосферные явления, наблюдавшиеся в срок или в последний час перед сроком; фигурными скобками обозначены явления, наблюдавшиеся между сроками (за 1-3 часа до срока); квадратными скобками обозначены град или гололедные отложения с указанием их диаметра в мм.
Облачность - указаны через наклонную черту общая и нижняя облачность в баллах и высота нижней границы облаков в метрах; квадратными скобками обозначены формы облаков: Ci - перистые, Cs - перисто-слоистые, Cc - перисто-кучевые, Ac - высококучевые, As - высокослоистые, Sc - слоисто-кучевые, Ns - слоисто-дождевые, Cu - кучевые, Cb - кучево-дождевые. Подробнее классификацию облаков см. в Атласе облаков (PDF).
T - Температура воздуха - температура, измеренная на высоте 2 м над землей.
Td - Температура точки росы - температура, при понижении до которой содержащийся в воздухе водяной пар достигнет насыщения.
f - Относительная влажность воздуха - влажноcть воздуха, измеренная на высоте 2 м над землей.
Te - Эффективная температура - температура, которую ощущает одетый по сезону человек в тени. Характеристика душности погоды. При расчете учитывается влияние влажности воздуха и скорости ветра на теплоощущения человека.
Tes - Эффективная температура на солнце - температура, которую ощущает человек, с поправкой на солнечный нагрев. Характеристика знойности погоды. Зависит от высоты солнца над горизонтом, облачности и скорости ветра. Ночью, в пасмурную погоду, а также при ветре 12 м/с и более поправка равна нулю.
P - Атмосферное давление - приведенное к уровню моря атмосферное давление.
Po - Атмосферное давление - измеренное на уровне метеостанции атмосферное давление.
Tmin - Минимальная температура - минимум температуры воздуха на высоте 2 м над землей.
Tmax - Максимальная температура - максимум температуры воздуха на высоте 2 м над землей.
R - Количество осадков - Количество выпавших осадков за период времени, мм. При наведении курсора мыши на число - период времени, за который выпало указанное количество осадков.
R24 - Количество осадков - Количество выпавших осадков за 24 часа, мм.
S - Снежный покров - Высота снежного покрова, см. При наведении курсора мыши на число - состояние снежного покрова и степень покрытия местности в баллах.